TimeEST,TemperatureF,Dew PointF,Humidity,Sea Level PressureIn,VisibilityMPH,Wind Direction,Wind SpeedMPH,Gust SpeedMPH,PrecipitationIn,Events,Conditions,WindDirDegrees,DateUTC
12:51 AM,42.1,28.9,60,30.36,10.0,NNE,10.4,17.3,N/A,,Clear,20,2013-02-10 05:51:00
1:51 AM,42.1,28.9,60,30.37,10.0,NNE,8.1,-,N/A,,Clear,30,2013-02-10 06:51:00
2:51 AM,42.1,26.1,53,30.38,10.0,Variable,5.8,16.1,N/A,,Clear,0,2013-02-10 07:51:00
3:51 AM,41.0,27.0,57,30.39,10.0,Variable,5.8,-,N/A,,Clear,0,2013-02-10 08:51:00
4:51 AM,39.9,27.0,60,30.40,10.0,NNE,6.9,-,N/A,,Clear,30,2013-02-10 09:51:00
5:51 AM,39.0,28.9,67,30.42,10.0,NE,5.8,-,N/A,,Clear,40,2013-02-10 10:51:00
6:51 AM,39.0,28.9,67,30.43,10.0,NE,5.8,-,N/A,,Clear,50,2013-02-10 11:51:00
7:51 AM,42.1,30.0,62,30.45,10.0,Variable,5.8,-,N/A,,Clear,0,2013-02-10 12:51:00
8:51 AM,45.0,32.0,60,30.46,10.0,NNE,6.9,-,N/A,,Clear,30,2013-02-10 13:51:00
9:51 AM,46.0,33.1,61,30.48,10.0,NNE,6.9,-,N/A,,Clear,30,2013-02-10 14:51:00
10:51 AM,46.9,33.1,59,30.49,10.0,Variable,5.8,-,N/A,,Clear,0,2013-02-10 15:51:00
11:51 AM,48.0,33.1,56,30.46,10.0,NE,9.2,-,N/A,,Clear,40,2013-02-10 16:51:00
12:51 PM,48.9,33.1,54,30.45,10.0,NNE,8.1,-,N/A,,Clear,30,2013-02-10 17:51:00
1:51 PM,48.9,35.1,59,30.43,10.0,Variable,5.8,-,N/A,,Clear,0,2013-02-10 18:51:00
2:51 PM,48.9,36.0,61,30.42,10.0,NNE,4.6,-,N/A,,Clear,20,2013-02-10 19:51:00
3:51 PM,48.9,37.0,64,30.41,10.0,ENE,3.5,-,N/A,,Clear,70,2013-02-10 20:51:00
4:51 PM,48.0,37.0,66,30.41,10.0,Calm,Calm,-,N/A,,Clear,0,2013-02-10 21:51:00
5:51 PM,44.1,37.9,79,30.38,10.0,NE,4.6,-,N/A,,Clear,40,2013-02-10 22:51:00
6:51 PM,45.0,39.0,80,30.39,10.0,NNE,5.8,-,N/A,,Clear,30,2013-02-10 23:51:00
7:51 PM,45.0,39.9,82,30.38,10.0,NE,6.9,-,N/A,,Clear,40,2013-02-11 00:51:00
8:51 PM,46.0,41.0,83,30.38,10.0,NE,6.9,-,N/A,,Clear,50,2013-02-11 01:51:00
9:51 PM,48.0,43.0,83,30.35,10.0,NE,6.9,-,N/A,,Mostly Cloudy,50,2013-02-11 02:51:00
10:51 PM,50.0,45.0,83,30.34,10.0,NE,5.8,-,N/A,,Mostly Cloudy,40,2013-02-11 03:51:00
11:51 PM,50.0,46.0,86,30.34,10.0,Calm,Calm,-,N/A,,Mostly Cloudy,0,2013-02-11 04:51:00